Weather Roundup
Issued by NWS Springfield, MO

Home | Current Version | Previous Version | Text Only | Print | Product List | Glossary On
Versions: 1 2 3 4 5 6 7 8 9 10 11 12 13 14 15 16 17 18 19 20 21 22 23 24 25 26 27 28 29 30 31 32 33 34 35 36 37 38 39 40 41 42 43 44 45 46 47 48 49 50
000
NZUS99 KSGF 201707
HRRSGF

HOURLY WEATHER
NATIONAL WEATHER SERVICE SPRINGFIELD MO
1200 PM CDT WED AUG 20 2014

......SGF CWA......

CITY           SKY/WX    TMP DP  RH WIND       PRES   REMARKS
SPRINGFIELD    SUNNY     91  67  44 SW15      29.99S HX  94
JOPLIN         SUNNY     91  67  44 SW20G26   29.97S HX  94
WEST PLAINS    SUNNY     88  70  55 VRB7      30.04R HX  93
ROLLA          PTSUNNY   87  69  54 W10       29.98R HX  91
OSAGE BEACH    SUNNY     90  72  55 SW8       29.96S HX  96
BRANSON        MOSUNNY   91  68  46 SW10      30.03S HX  95

......SURROUNDING SGF CWA......

CITY           SKY/WX    TMP DP  RH WIND       PRES   REMARKS
CHANUTE        SUNNY     90  69  50 S16       29.92S HX  94
PARSONS        SUNNY     89  71  55 S13       29.94S HX  95
COFFEYVILLE    MOSUNNY   89  71  55 S20G26    29.93R HX  95
EMPORIA        SUNNY     89  67  47 S17G25    29.89S HX  92
GROVE OK       SUNNY     86  70  58 S10G17    29.99R HX  90
ROGERS AR      MOSUNNY   88  68  51 SW8G16    30.03S HX  91
SILOAM SPRINGS SUNNY     84  68  58 SW13      30.02F
HARRISON AR    SUNNY     87  71  58 SW10      30.03F HX  93
NEAR YELLVILLE SUNNY     91  66  43 SW12      30.01S HX  94

......KANSAS AND MISSOURI......

CITY           SKY/WX    TMP DP  RH WIND       PRES   REMARKS
KANSAS CTY INT MOSUNNY   88  75  65 SW10      29.89S HX  97
DOWNTOWN KC    SUNNY     91  70  49 S14       29.88S HX  96
COLUMBIA       PTSUNNY   85  73  67 W8        29.97R HX  91
SEDALIA        SUNNY     88  72  58 SW12      29.96R HX  94
ST JOSEPH      SUNNY     86  74  67 S7        29.88R HX  94
ST LOUIS       CLOUDY    89  73  59 VRB3      29.98R HX  97
SPIRIT OF STL  PTSUNNY   85  74  69 CALM      29.96R HX  92
KIRKSVILLE     CLOUDY    77  68  73 E7        29.96F
WICHITA        MOSUNNY   90  66  45 S22       29.87S HX  92
TOPEKA         SUNNY     90  71  53 S9G17     29.87S HX  96
OLATHE         SUNNY     88  70  55 SW10      29.91R HX  93

......TENNESSEE......

CITY           SKY/WX    TMP DP  RH WIND       PRES   REMARKS
MEMPHIS        MOSUNNY   91  72  53 SW8       30.03F HX  98
NASHVILLE      MOSUNNY   93  75  55 W8        29.99F HX 104

......ARKANSAS.......

CITY           SKY/WX    TMP DP  RH WIND       PRES   REMARKS
FAYETTEVILLE   SUNNY     86  67  52 SW12G23   30.03R
FT SMITH       SUNNY     90  66  45 SW9       30.00R HX  92
LITTLE ROCK    SUNNY     89  70  53 SW10      30.03S HX  94

......OKLAHOMA.......

CITY           SKY/WX    TMP DP  RH WIND       PRES   REMARKS
TULSA          PTSUNNY   86  68  54 S15G24    29.93R
PONCA CITY     SUNNY     89  71  55 S12G17    29.90R HX  95
MCALESTER      MOSUNNY   81  72  74 S6        30.01R
OKLAHOMA CITY  SUNNY     90  63  40 S18G28    29.93S HX  91

......IOWA............

CITY           SKY/WX    TMP DP  RH WIND       PRES   REMARKS
DES MOINES     CLOUDY    72  67  84 S9        29.85F
QUAD CITIES    CLOUDY    77  68  73 W5        29.94R

......ILLINOIS........

CITY           SKY/WX    TMP DP  RH WIND       PRES   REMARKS
QUINCY         CLOUDY    76  73  91 SE10      29.96F
CHICAGO        PTSUNNY   82  64  54 SW12      29.91R




USA.gov is the U.S. government's official web portal to all federal, state and local government web resources and services.